Time,TemperatureF,DewpointF,PressureIn,WindDirection,WindDirectionDegrees,WindSpeedMPH,WindSpeedGustMPH,Humidity,HourlyPrecipIn,Conditions,Clouds,dailyrainin,SolarRadiationWatts/m^2,SoftwareType,DateUTC
2013-02-24 00:01:00,31.0,15.5,30.20,SSW,192,3.0,4.0,52,0.00,,,0.00,0,LWC V2.00 B727,2013-02-24 07:01:00,
2013-02-24 00:06:00,30.9,15.8,30.20,South,191,4.0,4.0,53,0.00,,,0.00,0,LWC V2.00 B727,2013-02-24 07:06:00,
2013-02-24 00:11:00,31.0,15.9,30.20,South,184,4.0,5.0,53,0.00,,,0.00,0,LWC V2.00 B727,2013-02-24 07:11:00,
2013-02-24 00:16:00,31.1,16.4,30.21,SW,219,2.0,5.0,54,0.00,,,0.00,0,LWC V2.00 B727,2013-02-24 07:16:00,
2013-02-24 00:21:00,31.1,16.0,30.20,SW,230,2.0,5.0,53,0.00,,,0.00,0,LWC V2.00 B727,2013-02-24 07:21:00,
2013-02-24 00:26:00,31.0,15.9,30.20,WSW,250,1.0,6.0,53,0.00,,,0.00,0,LWC V2.00 B727,2013-02-24 07:26:00,
2013-02-24 00:31:00,31.0,15.9,30.20,SSW,199,4.0,9.0,53,0.00,,,0.00,0,LWC V2.00 B727,2013-02-24 07:31:00,
2013-02-24 00:36:00,31.0,16.3,30.20,WSW,247,3.0,8.0,54,0.00,,,0.00,0,LWC V2.00 B727,2013-02-24 07:36:00,
2013-02-24 00:41:00,30.9,16.2,30.20,South,182,5.0,10.0,54,0.00,,,0.00,0,LWC V2.00 B727,2013-02-24 07:41:00,
2013-02-24 00:46:00,30.9,16.2,30.20,SSW,199,4.0,6.0,54,0.00,,,0.00,0,LWC V2.00 B727,2013-02-24 07:46:00,
2013-02-24 00:51:00,30.8,16.1,30.19,SW,218,3.0,8.0,54,0.00,,,0.00,0,LWC V2.00 B727,2013-02-24 07:51:00,
2013-02-24 00:56:00,30.6,16.0,30.19,SSW,209,3.0,5.0,54,0.00,,,0.00,0,LWC V2.00 B727,2013-02-24 07:56:00,
2013-02-24 01:01:00,30.3,16.1,30.18,SSW,208,2.0,4.0,55,0.00,,,0.00,0,LWC V2.00 B727,2013-02-24 08:01:00,
2013-02-24 01:06:00,30.1,15.9,30.18,SSW,202,0.0,3.0,55,0.00,,,0.00,0,LWC V2.00 B727,2013-02-24 08:06:00,
2013-02-24 01:11:00,29.9,15.7,30.18,SW,225,3.0,4.0,55,0.00,,,0.00,0,LWC V2.00 B727,2013-02-24 08:11:00,
2013-02-24 01:16:00,29.8,16.0,30.18,South,188,0.0,1.0,56,0.00,,,0.00,0,LWC V2.00 B727,2013-02-24 08:16:00,
2013-02-24 01:21:00,29.7,15.9,30.18,South,188,1.0,2.0,56,0.00,,,0.00,0,LWC V2.00 B727,2013-02-24 08:21:00,
2013-02-24 01:26:00,29.6,15.4,30.18,South,190,0.0,0.0,55,0.00,,,0.00,0,LWC V2.00 B727,2013-02-24 08:26:00,
2013-02-24 01:31:00,29.5,15.8,30.19,South,190,0.0,0.0,56,0.00,,,0.00,0,LWC V2.00 B727,2013-02-24 08:31:00,
2013-02-24 01:36:00,29.3,15.6,30.19,North,355,3.0,9.0,56,0.00,,,0.00,0,LWC V2.00 B727,2013-02-24 08:36:00,
2013-02-24 01:41:00,29.2,15.5,30.19,SW,214,0.0,5.0,56,0.00,,,0.00,0,LWC V2.00 B727,2013-02-24 08:41:00,
2013-02-24 01:46:00,29.0,15.7,30.20,SW,222,3.0,6.0,57,0.00,,,0.00,0,LWC V2.00 B727,2013-02-24 08:46:00,
2013-02-24 01:51:00,28.9,15.2,30.20,WSW,244,7.0,7.0,56,0.00,,,0.00,0,LWC V2.00 B727,2013-02-24 08:51:00,
2013-02-24 01:56:00,28.9,15.6,30.20,SW,229,3.0,3.0,57,0.00,,,0.00,0,LWC V2.00 B727,2013-02-24 08:56:00,
2013-02-24 02:01:00,28.8,15.1,30.19,SW,229,0.0,4.0,56,0.00,,,0.00,0,LWC V2.00 B727,2013-02-24 09:01:00,
2013-02-24 02:06:00,28.7,15.4,30.19,SW,229,1.0,2.0,57,0.00,,,0.00,0,LWC V2.00 B727,2013-02-24 09:06:00,
2013-02-24 02:11:00,28.6,15.3,30.19,SW,228,1.0,3.0,57,0.00,,,0.00,0,LWC V2.00 B727,2013-02-24 09:11:00,
2013-02-24 02:16:00,28.4,15.9,30.19,SW,227,2.0,4.0,59,0.00,,,0.00,0,LWC V2.00 B727,2013-02-24 09:16:00,
2013-02-24 02:21:00,28.2,16.5,30.19,SSW,203,5.0,5.0,61,0.00,,,0.00,0,LWC V2.00 B727,2013-02-24 09:21:00,
2013-02-24 02:26:00,28.0,16.7,30.19,WSW,237,2.0,5.0,62,0.00,,,0.00,0,LWC V2.00 B727,2013-02-24 09:26:00,
2013-02-24 02:31:00,27.9,17.3,30.18,WSW,246,2.0,6.0,64,0.00,,,0.00,0,LWC V2.00 B727,2013-02-24 09:31:00,
2013-02-24 02:36:00,27.8,18.3,30.18,SSW,208,1.0,3.0,67,0.00,,,0.00,0,LWC V2.00 B727,2013-02-24 09:36:00,
2013-02-24 02:41:00,27.6,18.8,30.18,SW,218,1.0,3.0,69,0.00,,,0.00,0,LWC V2.00 B727,2013-02-24 09:41:00,
2013-02-24 02:46:00,27.4,18.6,30.18,SW,218,1.0,4.0,69,0.00,,,0.00,0,LWC V2.00 B727,2013-02-24 09:46:00,
2013-02-24 02:51:00,27.2,19.1,30.17,SW,215,1.0,3.0,71,0.00,,,0.00,0,LWC V2.00 B727,2013-02-24 09:51:00,
2013-02-24 02:56:00,27.1,19.3,30.18,SW,217,0.0,3.0,72,0.00,,,0.00,0,LWC V2.00 B727,2013-02-24 09:56:00,
2013-02-24 03:01:00,26.9,19.4,30.17,South,191,1.0,4.0,73,0.00,,,0.00,0,LWC V2.00 B727,2013-02-24 10:01:00,
2013-02-24 03:06:00,26.7,19.5,30.17,SW,234,1.0,5.0,74,0.00,,,0.00,0,LWC V2.00 B727,2013-02-24 10:06:00,
2013-02-24 03:11:00,26.5,19.7,30.17,SW,227,1.0,4.0,75,0.00,,,0.00,0,LWC V2.00 B727,2013-02-24 10:11:00,
2013-02-24 03:16:00,26.4,19.6,30.17,SW,226,2.0,4.0,75,0.00,,,0.00,0,LWC V2.00 B727,2013-02-24 10:16:00,
2013-02-24 03:21:00,26.3,19.5,30.17,SSW,211,2.0,3.0,75,0.00,,,0.00,0,LWC V2.00 B727,2013-02-24 10:21:00,
2013-02-24 03:26:00,26.3,19.8,30.16,WSW,242,2.0,5.0,76,0.00,,,0.00,0,LWC V2.00 B727,2013-02-24 10:26:00,
2013-02-24 03:31:00,26.2,19.7,30.17,WSW,244,2.0,4.0,76,0.00,,,0.00,0,LWC V2.00 B727,2013-02-24 10:31:00,
2013-02-24 03:36:00,26.2,20.0,30.16,WSW,239,3.0,6.0,77,0.00,,,0.00,0,LWC V2.00 B727,2013-02-24 10:36:00,
2013-02-24 03:41:00,26.1,20.2,30.16,SW,235,3.0,7.0,78,0.00,,,0.00,0,LWC V2.00 B727,2013-02-24 10:41:00,
2013-02-24 03:46:00,25.8,19.9,30.16,South,177,1.0,5.0,78,0.00,,,0.00,0,LWC V2.00 B727,2013-02-24 10:46:00,
2013-02-24 03:51:00,25.6,20.0,30.16,SW,219,3.0,11.0,79,0.00,,,0.00,0,LWC V2.00 B727,2013-02-24 10:51:00,
2013-02-24 03:56:00,25.4,19.8,30.16,SW,232,5.0,13.0,79,0.00,,,0.00,0,LWC V2.00 B727,2013-02-24 10:56:00,
2013-02-24 04:01:00,25.2,19.9,30.16,SW,234,2.0,3.0,80,0.00,,,0.00,0,LWC V2.00 B727,2013-02-24 11:01:00,
2013-02-24 04:06:00,25.0,19.7,30.17,SW,227,2.0,4.0,80,0.00,,,0.00,0,LWC V2.00 B727,2013-02-24 11:06:00,
2013-02-24 04:11:00,24.8,19.5,30.16,West,263,7.0,10.0,80,0.00,,,0.00,0,LWC V2.00 B727,2013-02-24 11:11:00,
2013-02-24 04:16:00,24.5,18.9,30.16,SW,229,5.0,9.0,79,0.00,,,0.00,0,LWC V2.00 B727,2013-02-24 11:16:00,
2013-02-24 04:21:00,24.2,18.4,30.16,SW,231,1.0,6.0,78,0.00,,,0.00,0,LWC V2.00 B727,2013-02-24 11:21:00,
2013-02-24 04:26:00,24.0,18.2,30.16,North,0,0.0,5.0,78,0.00,,,0.00,0,LWC V2.00 B727,2013-02-24 11:26:00,
2013-02-24 04:31:00,23.7,17.9,30.15,NNW,345,3.0,6.0,78,0.00,,,0.00,0,LWC V2.00 B727,2013-02-24 11:31:00,
2013-02-24 04:36:00,23.5,17.7,30.15,NNE,19,4.0,4.0,78,0.00,,,0.00,0,LWC V2.00 B727,2013-02-24 11:36:00,
2013-02-24 04:41:00,23.4,17.6,30.15,SW,234,1.0,6.0,78,0.00,,,0.00,0,LWC V2.00 B727,2013-02-24 11:41:00,
2013-02-24 04:46:00,23.3,17.5,30.15,WSW,242,1.0,2.0,78,0.00,,,0.00,0,LWC V2.00 B727,2013-02-24 11:46:00,
2013-02-24 04:51:00,23.2,17.4,30.15,NNW,329,1.0,4.0,78,0.00,,,0.00,0,LWC V2.00 B727,2013-02-24 11:51:00,
2013-02-24 04:56:00,23.1,17.3,30.15,North,0,3.0,3.0,78,0.00,,,0.00,0,LWC V2.00 B727,2013-02-24 11:56:00,
2013-02-24 05:01:00,23.0,17.2,30.15,North,0,0.0,2.0,78,0.00,,,0.00,0,LWC V2.00 B727,2013-02-24 12:01:00,
2013-02-24 05:06:00,22.9,17.1,30.14,North,0,0.0,1.0,78,0.00,,,0.00,0,LWC V2.00 B727,2013-02-24 12:06:00,
2013-02-24 05:11:00,22.9,17.1,30.13,North,0,0.0,1.0,78,0.00,,,0.00,0,LWC V2.00 B727,2013-02-24 12:11:00,
2013-02-24 05:16:00,22.8,17.0,30.12,North,0,0.0,0.0,78,0.00,,,0.00,0,LWC V2.00 B727,2013-02-24 12:16:00,
2013-02-24 05:21:00,22.7,17.2,30.12,North,0,1.0,1.0,79,0.00,,,0.00,0,LWC V2.00 B727,2013-02-24 12:21:00,
2013-02-24 05:26:00,22.6,17.1,30.12,North,0,0.0,0.0,79,0.00,,,0.00,0,LWC V2.00 B727,2013-02-24 12:26:00,
2013-02-24 05:31:00,22.5,17.0,30.12,North,0,0.0,0.0,79,0.00,,,0.00,0,LWC V2.00 B727,2013-02-24 12:31:00,
2013-02-24 05:34:00,22.5,17.0,30.12,North,0,0.0,0.0,79,0.00,,,0.00,0,LWC V2.00 B727,2013-02-24 12:34:00,
2013-02-24 05:35:00,22.5,17.0,30.12,North,0,0.0,0.0,79,0.00,,,0.00,0,LWC V2.00 B727,2013-02-24 12:35:00,
2013-02-24 05:40:00,22.4,17.2,30.13,North,0,0.0,1.0,80,0.00,,,0.00,0,LWC V2.00 B727,2013-02-24 12:40:00,
2013-02-24 05:45:00,22.2,17.0,30.13,North,0,0.0,0.0,80,0.00,,,0.00,0,LWC V2.00 B727,2013-02-24 12:45:00,
2013-02-24 05:50:00,22.1,16.9,30.12,North,0,0.0,0.0,80,0.00,,,0.00,0,LWC V2.00 B727,2013-02-24 12:50:00,
2013-02-24 05:55:00,22.1,17.2,30.13,North,0,0.0,0.0,81,0.00,,,0.00,0,LWC V2.00 B727,2013-02-24 12:55:00,
2013-02-24 06:00:00,22.0,17.1,30.13,North,0,0.0,2.0,81,0.00,,,0.00,0,LWC V2.00 B727,2013-02-24 13:00:00,
2013-02-24 06:05:00,22.0,17.1,30.13,North,0,0.0,0.0,81,0.00,,,0.00,0,LWC V2.00 B727,2013-02-24 13:05:00,
2013-02-24 06:10:00,21.9,17.0,30.12,North,0,0.0,0.0,81,0.00,,,0.00,0,LWC V2.00 B727,2013-02-24 13:10:00,
2013-02-24 06:15:00,21.9,17.0,30.12,North,0,0.0,0.0,81,0.00,,,0.00,0,LWC V2.00 B727,2013-02-24 13:15:00,
2013-02-24 06:20:00,21.8,16.9,30.11,North,0,0.0,0.0,81,0.00,,,0.00,0,LWC V2.00 B727,2013-02-24 13:20:00,
2013-02-24 06:25:00,21.8,16.9,30.11,North,0,0.0,0.0,81,0.00,,,0.00,0,LWC V2.00 B727,2013-02-24 13:25:00,
2013-02-24 06:30:00,21.8,16.9,30.11,North,0,0.0,0.0,81,0.00,,,0.00,0,LWC V2.00 B727,2013-02-24 13:30:00,
2013-02-24 06:35:00,21.7,16.8,30.11,North,0,0.0,0.0,81,0.00,,,0.00,0,LWC V2.00 B727,2013-02-24 13:35:00,
2013-02-24 06:40:00,21.7,16.8,30.11,North,0,0.0,0.0,81,0.00,,,0.00,0,LWC V2.00 B727,2013-02-24 13:40:00,
2013-02-24 06:45:00,21.6,16.7,30.10,North,0,0.0,0.0,81,0.00,,,0.00,7,LWC V2.00 B727,2013-02-24 13:45:00,
2013-02-24 06:50:00,21.5,16.6,30.10,North,0,0.0,0.0,81,0.00,,,0.00,14,LWC V2.00 B727,2013-02-24 13:50:00,
2013-02-24 06:55:00,21.4,16.5,30.10,North,0,0.0,0.0,81,0.00,,,0.00,12,LWC V2.00 B727,2013-02-24 13:55:00,
2013-02-24 07:00:00,21.3,16.4,30.09,North,0,0.0,0.0,81,0.00,,,0.00,26,LWC V2.00 B727,2013-02-24 14:00:00,
2013-02-24 07:05:00,21.2,16.3,30.09,North,0,0.0,1.0,81,0.00,,,0.00,40,LWC V2.00 B727,2013-02-24 14:05:00,
2013-02-24 07:10:00,21.2,16.3,30.09,North,0,0.0,1.0,81,0.00,,,0.00,47,LWC V2.00 B727,2013-02-24 14:10:00,
2013-02-24 07:15:00,21.2,16.6,30.09,North,0,1.0,1.0,82,0.00,,,0.00,72,LWC V2.00 B727,2013-02-24 14:15:00,
2013-02-24 07:20:00,21.3,16.7,30.09,North,0,0.0,2.0,82,0.00,,,0.00,100,LWC V2.00 B727,2013-02-24 14:20:00,
2013-02-24 07:25:00,21.5,16.9,30.10,North,0,0.0,0.0,82,0.00,,,0.00,93,LWC V2.00 B727,2013-02-24 14:25:00,
2013-02-24 07:30:00,21.6,17.0,30.10,North,0,1.0,2.0,82,0.00,,,0.00,121,LWC V2.00 B727,2013-02-24 14:30:00,
2013-02-24 07:35:00,21.9,17.0,30.10,West,267,3.0,3.0,81,0.00,,,0.00,100,LWC V2.00 B727,2013-02-24 14:35:00,
2013-02-24 07:40:00,22.1,17.2,30.10,West,267,2.0,2.0,81,0.00,,,0.00,79,LWC V2.00 B727,2013-02-24 14:40:00,
2013-02-24 07:45:00,22.4,17.2,30.11,WSW,246,2.0,4.0,80,0.00,,,0.00,91,LWC V2.00 B727,2013-02-24 14:45:00,
2013-02-24 07:50:00,22.5,17.0,30.11,NW,324,3.0,3.0,79,0.00,,,0.00,111,LWC V2.00 B727,2013-02-24 14:50:00,
2013-02-24 07:55:00,22.7,16.9,30.11,SW,226,1.0,5.0,78,0.00,,,0.00,163,LWC V2.00 B727,2013-02-24 14:55:00,
2013-02-24 08:00:00,22.9,16.8,30.11,WSW,248,2.0,5.0,77,0.00,,,0.00,160,LWC V2.00 B727,2013-02-24 15:00:00,
2013-02-24 08:05:00,23.0,16.6,30.11,SW,229,3.0,4.0,76,0.00,,,0.00,183,LWC V2.00 B727,2013-02-24 15:05:00,
2013-02-24 08:10:00,23.0,16.3,30.12,WSW,238,1.0,4.0,75,0.00,,,0.00,234,LWC V2.00 B727,2013-02-24 15:10:00,
2013-02-24 08:15:00,23.1,16.4,30.12,WSW,242,1.0,3.0,75,0.00,,,0.00,290,LWC V2.00 B727,2013-02-24 15:15:00,
2013-02-24 08:20:00,23.4,16.7,30.12,West,278,2.0,3.0,75,0.00,,,0.00,392,LWC V2.00 B727,2013-02-24 15:20:00,
2013-02-24 08:25:00,23.7,17.0,30.12,WSW,256,0.0,2.0,75,0.00,,,0.00,475,LWC V2.00 B727,2013-02-24 15:25:00,
2013-02-24 08:30:00,24.1,17.0,30.11,NNW,345,0.0,3.0,74,0.00,,,0.00,406,LWC V2.00 B727,2013-02-24 15:30:00,
2013-02-24 08:35:00,24.4,16.4,30.11,WSW,244,4.0,8.0,71,0.00,,,0.00,339,LWC V2.00 B727,2013-02-24 15:35:00,
2013-02-24 08:40:00,24.5,16.1,30.11,SW,233,4.0,6.0,70,0.00,,,0.00,369,LWC V2.00 B727,2013-02-24 15:40:00,
2013-02-24 08:45:00,24.7,16.3,30.10,SW,224,0.0,6.0,70,0.00,,,0.00,417,LWC V2.00 B727,2013-02-24 15:45:00,
2013-02-24 08:50:00,24.8,15.8,30.10,SW,232,2.0,6.0,68,0.00,,,0.00,269,LWC V2.00 B727,2013-02-24 15:50:00,
2013-02-24 08:55:00,25.1,16.0,30.10,SW,227,1.0,4.0,68,0.00,,,0.00,480,LWC V2.00 B727,2013-02-24 15:55:00,
2013-02-24 09:00:00,25.4,16.3,30.10,SSE,167,0.0,4.0,68,0.00,,,0.00,392,LWC V2.00 B727,2013-02-24 16:00:00,
2013-02-24 09:05:00,25.6,15.5,30.10,SW,220,0.0,2.0,65,0.00,,,0.00,399,LWC V2.00 B727,2013-02-24 16:05:00,
2013-02-24 09:10:00,25.8,15.0,30.10,North,10,4.0,5.0,63,0.00,,,0.00,533,LWC V2.00 B727,2013-02-24 16:10:00,
2013-02-24 09:15:00,25.9,15.1,30.10,West,259,1.0,5.0,63,0.00,,,0.00,552,LWC V2.00 B727,2013-02-24 16:15:00,
2013-02-24 09:20:00,26.1,15.3,30.09,SW,234,0.0,1.0,63,0.00,,,0.00,568,LWC V2.00 B727,2013-02-24 16:20:00,
2013-02-24 09:25:00,26.3,15.4,30.09,WSW,254,1.0,1.0,63,0.00,,,0.00,601,LWC V2.00 B727,2013-02-24 16:25:00,
2013-02-24 09:30:00,26.7,15.8,30.08,WSW,241,0.0,2.0,63,0.00,,,0.00,461,LWC V2.00 B727,2013-02-24 16:30:00,
2013-02-24 09:35:00,26.9,15.6,30.08,WSW,239,3.0,4.0,62,0.00,,,0.00,621,LWC V2.00 B727,2013-02-24 16:35:00,
2013-02-24 09:40:00,27.3,16.4,30.08,SW,217,2.0,4.0,63,0.00,,,0.00,621,LWC V2.00 B727,2013-02-24 16:40:00,
2013-02-24 09:45:00,27.6,15.9,30.08,North,355,3.0,4.0,61,0.00,,,0.00,642,LWC V2.00 B727,2013-02-24 16:45:00,
2013-02-24 09:50:00,27.9,15.1,30.08,North,5,1.0,4.0,58,0.00,,,0.00,640,LWC V2.00 B727,2013-02-24 16:50:00,
2013-02-24 09:55:00,28.0,14.8,30.08,North,5,0.0,3.0,57,0.00,,,0.00,659,LWC V2.00 B727,2013-02-24 16:55:00,
2013-02-24 10:00:00,28.3,15.8,30.08,North,5,1.0,3.0,59,0.00,,,0.00,694,LWC V2.00 B727,2013-02-24 17:00:00,
2013-02-24 10:05:00,28.7,16.6,30.07,North,5,0.0,3.0,60,0.00,,,0.00,712,LWC V2.00 B727,2013-02-24 17:05:00,
2013-02-24 10:10:00,28.9,16.0,30.07,NE,45,4.0,4.0,58,0.00,,,0.00,728,LWC V2.00 B727,2013-02-24 17:10:00,
2013-02-24 10:15:00,29.2,15.9,30.07,NE,55,1.0,3.0,57,0.00,,,0.00,722,LWC V2.00 B727,2013-02-24 17:15:00,
2013-02-24 10:20:00,29.4,16.1,30.06,NE,56,0.0,5.0,57,0.00,,,0.00,721,LWC V2.00 B727,2013-02-24 17:20:00,
2013-02-24 10:25:00,29.5,15.3,30.07,NE,38,0.0,1.0,55,0.00,,,0.00,742,LWC V2.00 B727,2013-02-24 17:25:00,
2013-02-24 10:30:00,29.8,16.8,30.07,North,355,1.0,5.0,58,0.00,,,0.00,765,LWC V2.00 B727,2013-02-24 17:30:00,
2013-02-24 10:35:00,29.9,15.3,30.07,North,0,2.0,4.0,54,0.00,,,0.00,802,LWC V2.00 B727,2013-02-24 17:35:00,
2013-02-24 10:40:00,30.1,14.2,30.07,North,0,0.0,2.0,51,0.00,,,0.00,856,LWC V2.00 B727,2013-02-24 17:40:00,
2013-02-24 10:45:00,30.6,16.8,30.06,West,263,0.0,2.0,56,0.00,,,0.00,928,LWC V2.00 B727,2013-02-24 17:45:00,
2013-02-24 10:50:00,31.1,16.8,30.06,West,263,0.0,3.0,55,0.00,,,0.00,758,LWC V2.00 B727,2013-02-24 17:50:00,
2013-02-24 10:55:00,31.7,16.5,30.05,NNE,14,5.0,5.0,53,0.00,,,0.00,529,LWC V2.00 B727,2013-02-24 17:55:00,
2013-02-24 11:00:00,31.9,15.4,30.04,North,11,0.0,2.0,50,0.00,,,0.00,304,LWC V2.00 B727,2013-02-24 18:00:00,
2013-02-24 11:05:00,31.9,14.9,30.04,North,11,3.0,4.0,49,0.00,,,0.00,918,LWC V2.00 B727,2013-02-24 18:05:00,
2013-02-24 11:10:00,32.3,18.0,30.04,ENE,57,1.0,4.0,55,0.00,,,0.00,960,LWC V2.00 B727,2013-02-24 18:10:00,
2013-02-24 11:15:00,32.4,18.1,30.03,North,9,7.0,7.0,55,0.00,,,0.00,851,LWC V2.00 B727,2013-02-24 18:15:00,
2013-02-24 11:20:00,32.5,17.3,30.03,NNE,28,0.0,4.0,53,0.00,,,0.00,863,LWC V2.00 B727,2013-02-24 18:20:00,
2013-02-24 11:25:00,32.7,17.9,30.03,North,10,4.0,5.0,54,0.00,,,0.00,898,LWC V2.00 B727,2013-02-24 18:25:00,
2013-02-24 11:30:00,32.8,16.7,30.02,NNE,15,3.0,7.0,51,0.00,,,0.00,791,LWC V2.00 B727,2013-02-24 18:30:00,
2013-02-24 11:35:00,32.6,15.1,30.02,NNE,25,6.0,8.0,48,0.00,,,0.00,853,LWC V2.00 B727,2013-02-24 18:35:00,
2013-02-24 11:40:00,32.4,14.4,30.02,North,5,0.0,0.0,47,0.00,,,0.00,835,LWC V2.00 B727,2013-02-24 18:40:00,
2013-02-24 11:45:00,32.7,16.6,30.02,North,5,0.0,2.0,51,0.00,,,0.00,872,LWC V2.00 B727,2013-02-24 18:45:00,
2013-02-24 11:50:00,33.1,18.3,30.01,NNE,22,2.0,3.0,54,0.00,,,0.00,874,LWC V2.00 B727,2013-02-24 18:50:00,
2013-02-24 11:55:00,33.4,16.8,30.01,North,9,1.0,5.0,50,0.00,,,0.00,816,LWC V2.00 B727,2013-02-24 18:55:00,
2013-02-24 12:00:00,33.6,16.5,30.00,NW,311,5.0,5.0,49,0.00,,,0.00,659,LWC V2.00 B727,2013-02-24 19:00:00,
2013-02-24 12:05:00,33.7,15.6,30.00,NNW,337,2.0,3.0,47,0.00,,,0.00,796,LWC V2.00 B727,2013-02-24 19:05:00,
2013-02-24 12:10:00,34.1,17.0,30.00,WSW,240,5.0,7.0,49,0.00,,,0.00,911,LWC V2.00 B727,2013-02-24 19:10:00,
2013-02-24 12:15:00,34.0,16.4,30.00,South,190,6.0,7.0,48,0.00,,,0.00,821,LWC V2.00 B727,2013-02-24 19:15:00,
2013-02-24 12:20:00,33.7,17.1,30.00,SSW,201,0.0,1.0,50,0.00,,,0.00,705,LWC V2.00 B727,2013-02-24 19:20:00,
2013-02-24 12:25:00,34.1,16.0,29.99,North,11,0.0,5.0,47,0.00,,,0.00,621,LWC V2.00 B727,2013-02-24 19:25:00,
2013-02-24 12:30:00,34.4,16.8,29.99,NNE,23,3.0,4.0,48,0.00,,,0.00,563,LWC V2.00 B727,2013-02-24 19:30:00,
2013-02-24 12:35:00,34.0,16.4,29.99,SW,223,0.0,4.0,48,0.00,,,0.00,640,LWC V2.00 B727,2013-02-24 19:35:00,
2013-02-24 12:40:00,33.9,16.3,29.99,SW,221,1.0,5.0,48,0.00,,,0.00,526,LWC V2.00 B727,2013-02-24 19:40:00,
2013-02-24 12:45:00,33.9,18.2,29.99,SW,227,0.0,4.0,52,0.00,,,0.00,673,LWC V2.00 B727,2013-02-24 19:45:00,
2013-02-24 12:50:00,34.3,16.7,29.98,North,0,2.0,5.0,48,0.00,,,0.00,459,LWC V2.00 B727,2013-02-24 19:50:00,
2013-02-24 12:55:00,34.0,14.9,29.98,WSW,237,4.0,6.0,45,0.00,,,0.00,606,LWC V2.00 B727,2013-02-24 19:55:00,
2013-02-24 13:00:00,33.8,15.2,29.98,WSW,246,0.0,7.0,46,0.00,,,0.00,441,LWC V2.00 B727,2013-02-24 20:00:00,
2013-02-24 13:05:00,33.5,15.5,29.98,SW,233,1.0,2.0,47,0.00,,,0.00,422,LWC V2.00 B727,2013-02-24 20:05:00,
2013-02-24 13:10:00,33.6,16.0,29.97,WSW,238,0.0,1.0,48,0.00,,,0.00,513,LWC V2.00 B727,2013-02-24 20:10:00,
2013-02-24 13:15:00,33.9,14.3,29.97,NNW,348,4.0,7.0,44,0.00,,,0.00,761,LWC V2.00 B727,2013-02-24 20:15:00,
2013-02-24 13:20:00,33.9,14.8,29.97,NNW,338,0.0,4.0,45,0.00,,,0.00,417,LWC V2.00 B727,2013-02-24 20:20:00,
2013-02-24 13:25:00,33.9,14.8,29.97,North,0,3.0,5.0,45,0.00,,,0.00,480,LWC V2.00 B727,2013-02-24 20:25:00,
2013-02-24 13:30:00,33.9,16.3,29.97,NNE,15,0.0,8.0,48,0.00,,,0.00,482,LWC V2.00 B727,2013-02-24 20:30:00,
2013-02-24 13:35:00,34.1,16.5,29.97,North,5,3.0,6.0,48,0.00,,,0.00,417,LWC V2.00 B727,2013-02-24 20:35:00,
2013-02-24 13:40:00,33.9,14.3,29.97,North,355,0.0,5.0,44,0.00,,,0.00,381,LWC V2.00 B727,2013-02-24 20:40:00,
2013-02-24 13:45:00,33.8,16.2,29.96,North,0,4.0,4.0,48,0.00,,,0.00,374,LWC V2.00 B727,2013-02-24 20:45:00,
2013-02-24 13:50:00,33.6,16.0,29.96,NNE,25,3.0,5.0,48,0.00,,,0.00,311,LWC V2.00 B727,2013-02-24 20:50:00,
2013-02-24 13:55:00,33.4,16.3,29.97,North,0,1.0,5.0,49,0.00,,,0.00,229,LWC V2.00 B727,2013-02-24 20:55:00,
2013-02-24 14:00:00,33.2,17.5,29.96,ENE,59,4.0,5.0,52,0.00,,,0.00,149,LWC V2.00 B727,2013-02-24 21:00:00,
2013-02-24 14:05:00,32.8,18.4,29.97,NE,38,1.0,4.0,55,0.00,,,0.00,113,LWC V2.00 B727,2013-02-24 21:05:00,
2013-02-24 14:10:00,32.1,19.0,29.97,NE,51,4.0,4.0,58,0.00,,,0.00,97,LWC V2.00 B727,2013-02-24 21:10:00,
2013-02-24 14:15:00,31.4,18.8,29.97,East,91,2.0,3.0,59,0.00,,,0.00,90,LWC V2.00 B727,2013-02-24 21:15:00,
2013-02-24 14:20:00,30.9,19.1,29.98,ENE,64,2.0,4.0,61,0.00,,,0.00,84,LWC V2.00 B727,2013-02-24 21:20:00,
2013-02-24 14:25:00,30.5,19.1,29.98,ENE,69,3.0,5.0,62,0.00,,,0.00,104,LWC V2.00 B727,2013-02-24 21:25:00,
2013-02-24 14:30:00,30.2,18.8,29.97,NNE,25,6.0,6.0,62,0.00,,,0.00,156,LWC V2.00 B727,2013-02-24 21:30:00,
2013-02-24 14:35:00,30.0,17.8,29.97,NNE,27,5.0,7.0,60,0.00,,,0.00,144,LWC V2.00 B727,2013-02-24 21:35:00,
2013-02-24 14:40:00,29.8,17.6,29.98,NE,53,1.0,5.0,60,0.00,,,0.00,107,LWC V2.00 B727,2013-02-24 21:40:00,
2013-02-24 14:45:00,29.6,17.8,29.98,ENE,66,1.0,5.0,61,0.00,,,0.00,88,LWC V2.00 B727,2013-02-24 21:45:00,
2013-02-24 14:50:00,29.3,18.7,29.98,ENE,57,3.0,5.0,64,0.00,,,0.00,88,LWC V2.00 B727,2013-02-24 21:50:00,
2013-02-24 14:55:00,28.9,19.0,29.98,NE,41,2.0,5.0,66,0.00,,,0.00,83,LWC V2.00 B727,2013-02-24 21:55:00,
2013-02-24 15:00:00,28.7,19.5,29.98,NNE,30,5.0,10.0,68,0.00,,,0.00,70,LWC V2.00 B727,2013-02-24 22:00:00,
2013-02-24 15:05:00,28.2,19.7,29.98,North,11,2.0,4.0,70,0.00,,,0.00,67,LWC V2.00 B727,2013-02-24 22:05:00,
2013-02-24 15:10:00,27.9,20.1,29.98,NNE,30,3.0,8.0,72,0.00,,,0.00,46,LWC V2.00 B727,2013-02-24 22:10:00,
2013-02-24 15:15:00,27.5,20.0,29.99,North,11,2.0,2.0,73,0.00,,,0.00,40,LWC V2.00 B727,2013-02-24 22:15:00,
2013-02-24 15:20:00,27.2,19.7,29.99,NNE,12,1.0,3.0,73,0.00,,,0.00,39,LWC V2.00 B727,2013-02-24 22:20:00,
2013-02-24 15:25:00,27.0,19.8,29.99,NNE,12,1.0,1.0,74,0.00,,,0.00,32,LWC V2.00 B727,2013-02-24 22:25:00,
2013-02-24 15:30:00,26.9,19.7,29.99,NNE,12,2.0,3.0,74,0.00,,,0.00,28,LWC V2.00 B727,2013-02-24 22:30:00,
2013-02-24 15:35:00,26.7,19.9,30.00,North,11,0.0,1.0,75,0.00,,,0.00,25,LWC V2.00 B727,2013-02-24 22:35:00,
2013-02-24 15:40:00,26.6,20.1,30.00,North,11,0.0,2.0,76,0.00,,,0.00,25,LWC V2.00 B727,2013-02-24 22:40:00,
2013-02-24 15:45:00,26.5,20.3,30.00,North,11,0.0,0.0,77,0.00,,,0.00,25,LWC V2.00 B727,2013-02-24 22:45:00,
2013-02-24 15:50:00,26.3,20.1,30.00,North,11,0.0,1.0,77,0.00,,,0.00,18,LWC V2.00 B727,2013-02-24 22:50:00,
2013-02-24 15:55:00,26.3,20.4,30.01,North,11,0.0,0.0,78,0.00,,,0.00,19,LWC V2.00 B727,2013-02-24 22:55:00,
2013-02-24 16:00:00,26.2,20.3,30.01,North,11,0.0,1.0,78,0.00,,,0.00,21,LWC V2.00 B727,2013-02-24 23:00:00,
2013-02-24 16:05:00,26.0,20.1,30.01,North,11,2.0,3.0,78,0.00,,,0.00,19,LWC V2.00 B727,2013-02-24 23:05:00,
2013-02-24 16:10:00,25.8,20.2,30.01,North,0,2.0,4.0,79,0.00,,,0.00,16,LWC V2.00 B727,2013-02-24 23:10:00,
2013-02-24 16:15:00,25.6,20.3,30.01,North,0,0.0,3.0,80,0.00,,,0.00,14,LWC V2.00 B727,2013-02-24 23:15:00,
2013-02-24 16:20:00,25.4,20.1,30.01,NNE,18,1.0,3.0,80,0.00,,,0.00,18,LWC V2.00 B727,2013-02-24 23:20:00,
2013-02-24 16:25:00,25.2,19.9,30.01,North,355,3.0,5.0,80,0.00,,,0.00,23,LWC V2.00 B727,2013-02-24 23:25:00,
2013-02-24 16:30:00,25.1,19.8,30.02,NNW,344,3.0,5.0,80,0.00,,,0.00,21,LWC V2.00 B727,2013-02-24 23:30:00,
2013-02-24 16:35:00,24.9,19.6,30.02,North,5,2.0,3.0,80,0.00,,,0.00,18,LWC V2.00 B727,2013-02-24 23:35:00,
2013-02-24 16:40:00,24.7,19.1,30.02,North,355,1.0,4.0,79,0.00,,,0.00,12,LWC V2.00 B727,2013-02-24 23:40:00,
2013-02-24 16:45:00,24.6,18.7,30.02,North,355,0.0,2.0,78,0.00,,,0.00,11,LWC V2.00 B727,2013-02-24 23:45:00,
2013-02-24 16:50:00,24.5,18.6,30.02,North,355,1.0,4.0,78,0.00,,,0.00,12,LWC V2.00 B727,2013-02-24 23:50:00,
2013-02-24 16:55:00,24.5,18.6,30.02,North,355,0.0,1.0,78,0.00,,,0.00,11,LWC V2.00 B727,2013-02-24 23:55:00,
2013-02-24 17:00:00,24.4,18.5,30.03,North,355,0.0,2.0,78,0.00,,,0.00,7,LWC V2.00 B727,2013-02-25 00:00:00,
2013-02-24 17:05:00,24.4,18.5,30.04,North,355,1.0,3.0,78,0.00,,,0.00,5,LWC V2.00 B727,2013-02-25 00:05:00,
2013-02-24 17:10:00,24.4,18.5,30.04,NNE,12,1.0,4.0,78,0.00,,,0.00,7,LWC V2.00 B727,2013-02-25 00:10:00,
2013-02-24 17:15:00,24.4,18.5,30.04,NNE,12,2.0,2.0,78,0.00,,,0.00,7,LWC V2.00 B727,2013-02-25 00:15:00,
2013-02-24 17:20:00,24.4,18.5,30.04,North,9,2.0,5.0,78,0.00,,,0.00,7,LWC V2.00 B727,2013-02-25 00:20:00,
2013-02-24 17:25:00,24.4,18.5,30.04,ENE,61,3.0,5.0,78,0.00,,,0.00,5,LWC V2.00 B727,2013-02-25 00:25:00,
2013-02-24 17:30:00,24.4,18.5,30.04,ENE,59,2.0,3.0,78,0.00,,,0.00,5,LWC V2.00 B727,2013-02-25 00:30:00,
2013-02-24 17:35:00,24.4,18.8,30.05,ENE,59,1.0,3.0,79,0.00,,,0.00,0,LWC V2.00 B727,2013-02-25 00:35:00,
2013-02-24 17:40:00,24.4,18.8,30.05,ENE,59,0.0,0.0,79,0.00,,,0.00,0,LWC V2.00 B727,2013-02-25 00:40:00,
2013-02-24 17:45:00,24.4,18.8,30.05,ENE,59,1.0,1.0,79,0.00,,,0.00,0,LWC V2.00 B727,2013-02-25 00:45:00,
2013-02-24 17:50:00,24.3,18.4,30.06,ENE,59,1.0,1.0,78,0.00,,,0.00,0,LWC V2.00 B727,2013-02-25 00:50:00,
2013-02-24 17:55:00,24.2,18.4,30.06,NNE,22,3.0,6.0,78,0.00,,,0.00,0,LWC V2.00 B727,2013-02-25 00:55:00,
2013-02-24 18:00:00,24.1,17.3,30.06,NE,44,1.0,3.0,75,0.00,,,0.00,0,LWC V2.00 B727,2013-02-25 01:00:00,
2013-02-24 18:05:00,24.1,16.4,30.06,NNE,25,4.0,9.0,72,0.00,,,0.00,0,LWC V2.00 B727,2013-02-25 01:05:00,
2013-02-24 18:10:00,24.1,16.1,30.06,NE,46,4.0,7.0,71,0.00,,,0.00,0,LWC V2.00 B727,2013-02-25 01:10:00,
2013-02-24 18:15:00,24.2,16.2,30.07,NE,42,2.0,5.0,71,0.00,,,0.00,0,LWC V2.00 B727,2013-02-25 01:15:00,
2013-02-24 18:20:00,24.2,15.5,30.07,NNE,18,3.0,5.0,69,0.00,,,0.00,0,LWC V2.00 B727,2013-02-25 01:20:00,
2013-02-24 18:25:00,24.2,14.9,30.08,ENE,76,7.0,11.0,67,0.00,,,0.00,0,LWC V2.00 B727,2013-02-25 01:25:00,
2013-02-24 18:30:00,24.2,14.5,30.08,NE,49,7.0,13.0,66,0.00,,,0.00,0,LWC V2.00 B727,2013-02-25 01:30:00,
2013-02-24 18:35:00,24.2,14.2,30.09,NE,42,3.0,9.0,65,0.00,,,0.00,0,LWC V2.00 B727,2013-02-25 01:35:00,
2013-02-24 18:40:00,24.2,14.5,30.10,NNE,16,1.0,7.0,66,0.00,,,0.00,0,LWC V2.00 B727,2013-02-25 01:40:00,
2013-02-24 18:45:00,24.0,14.0,30.10,NE,54,7.0,9.0,65,0.00,,,0.00,0,LWC V2.00 B727,2013-02-25 01:45:00,
2013-02-24 18:50:00,23.9,13.9,30.11,NNE,30,3.0,6.0,65,0.00,,,0.00,0,LWC V2.00 B727,2013-02-25 01:50:00,
2013-02-24 18:55:00,23.8,13.4,30.11,NE,38,5.0,12.0,64,0.00,,,0.00,0,LWC V2.00 B727,2013-02-25 01:55:00,
2013-02-24 19:00:00,23.6,13.2,30.11,NE,51,8.0,10.0,64,0.00,,,0.00,0,LWC V2.00 B727,2013-02-25 02:00:00,
2013-02-24 19:05:00,23.5,12.8,30.12,NE,42,3.0,5.0,63,0.00,,,0.00,0,LWC V2.00 B727,2013-02-25 02:05:00,
2013-02-24 19:10:00,23.4,12.7,30.12,NNE,33,7.0,14.0,63,0.00,,,0.00,0,LWC V2.00 B727,2013-02-25 02:10:00,
2013-02-24 19:15:00,23.3,12.2,30.12,NNE,13,7.0,14.0,62,0.00,,,0.00,0,LWC V2.00 B727,2013-02-25 02:15:00,
2013-02-24 19:20:00,23.1,12.4,30.12,NNE,19,2.0,6.0,63,0.00,,,0.00,0,LWC V2.00 B727,2013-02-25 02:20:00,
2013-02-24 19:25:00,22.9,12.6,30.12,NNE,21,11.0,21.0,64,0.00,,,0.00,0,LWC V2.00 B727,2013-02-25 02:25:00,
2013-02-24 19:30:00,22.7,12.4,30.13,NNE,15,6.0,9.0,64,0.00,,,0.00,0,LWC V2.00 B727,2013-02-25 02:30:00,
2013-02-24 19:35:00,22.6,11.9,30.13,NE,44,11.0,12.0,63,0.00,,,0.00,0,LWC V2.00 B727,2013-02-25 02:35:00,
2013-02-24 19:40:00,22.6,11.6,30.13,NNE,24,7.0,8.0,62,0.00,,,0.00,0,LWC V2.00 B727,2013-02-25 02:40:00,
2013-02-24 19:45:00,22.6,11.2,30.14,NNE,24,5.0,11.0,61,0.00,,,0.00,0,LWC V2.00 B727,2013-02-25 02:45:00,
2013-02-24 19:50:00,22.5,11.1,30.14,ENE,60,10.0,14.0,61,0.00,,,0.00,0,LWC V2.00 B727,2013-02-25 02:50:00,
2013-02-24 19:55:00,22.4,11.4,30.14,NNE,29,11.0,18.0,62,0.00,,,0.00,0,LWC V2.00 B727,2013-02-25 02:55:00,
2013-02-24 20:00:00,22.4,11.0,30.14,NE,36,8.0,13.0,61,0.00,,,0.00,0,LWC V2.00 B727,2013-02-25 03:00:00,
2013-02-24 20:05:00,22.2,11.6,30.14,NNE,17,12.0,14.0,63,0.00,,,0.00,0,LWC V2.00 B727,2013-02-25 03:05:00,
2013-02-24 20:10:00,22.0,11.4,30.15,NE,55,6.0,7.0,63,0.00,,,0.00,0,LWC V2.00 B727,2013-02-25 03:10:00,
2013-02-24 20:15:00,22.0,11.0,30.16,NNE,19,11.0,12.0,62,0.00,,,0.00,0,LWC V2.00 B727,2013-02-25 03:15:00,
2013-02-24 20:20:00,22.0,10.6,30.16,ENE,60,11.0,14.0,61,0.00,,,0.00,0,LWC V2.00 B727,2013-02-25 03:20:00,
2013-02-24 20:25:00,22.0,10.6,30.16,NNE,13,2.0,8.0,61,0.00,,,0.00,0,LWC V2.00 B727,2013-02-25 03:25:00,
2013-02-24 20:30:00,21.9,10.5,30.17,North,10,6.0,12.0,61,0.00,,,0.00,0,LWC V2.00 B727,2013-02-25 03:30:00,
2013-02-24 20:35:00,21.9,10.5,30.17,NE,52,5.0,7.0,61,0.00,,,0.00,0,LWC V2.00 B727,2013-02-25 03:35:00,
2013-02-24 20:40:00,21.9,10.2,30.17,NNE,19,3.0,16.0,60,0.00,,,0.00,0,LWC V2.00 B727,2013-02-25 03:40:00,
2013-02-24 20:45:00,21.9,10.2,30.18,ENE,58,8.0,13.0,60,0.00,,,0.00,0,LWC V2.00 B727,2013-02-25 03:45:00,
2013-02-24 20:50:00,21.9,9.4,30.18,ENE,78,1.0,4.0,58,0.00,,,0.00,0,LWC V2.00 B727,2013-02-25 03:50:00,
2013-02-24 20:55:00,22.0,9.9,30.19,ENE,76,0.0,2.0,59,0.00,,,0.00,0,LWC V2.00 B727,2013-02-25 03:55:00,
2013-02-24 21:00:00,21.9,9.4,30.18,ESE,117,3.0,5.0,58,0.00,,,0.00,0,LWC V2.00 B727,2013-02-25 04:00:00,
2013-02-24 21:05:00,21.9,9.4,30.19,East,101,0.0,5.0,58,0.00,,,0.00,0,LWC V2.00 B727,2013-02-25 04:05:00,
2013-02-24 21:10:00,21.8,10.1,30.19,ESE,106,0.0,2.0,60,0.00,,,0.00,0,LWC V2.00 B727,2013-02-25 04:10:00,
2013-02-24 21:15:00,21.7,9.6,30.19,ESE,106,0.0,0.0,59,0.00,,,0.00,0,LWC V2.00 B727,2013-02-25 04:15:00,
2013-02-24 21:20:00,21.7,9.6,30.19,ESE,107,0.0,2.0,59,0.00,,,0.00,0,LWC V2.00 B727,2013-02-25 04:20:00,
2013-02-24 21:25:00,21.6,9.5,30.19,ESE,107,1.0,1.0,59,0.00,,,0.00,0,LWC V2.00 B727,2013-02-25 04:25:00,
2013-02-24 21:30:00,21.6,9.5,30.19,ESE,106,0.0,0.0,59,0.00,,,0.00,0,LWC V2.00 B727,2013-02-25 04:30:00,
2013-02-24 21:35:00,21.6,8.4,30.19,WSW,241,0.0,1.0,56,0.00,,,0.00,0,LWC V2.00 B727,2013-02-25 04:35:00,
2013-02-24 21:40:00,21.7,9.2,30.19,NNE,15,4.0,7.0,58,0.00,,,0.00,0,LWC V2.00 B727,2013-02-25 04:40:00,
2013-02-24 21:45:00,21.6,8.8,30.19,ENE,67,0.0,5.0,57,0.00,,,0.00,0,LWC V2.00 B727,2013-02-25 04:45:00,
2013-02-24 21:50:00,21.7,8.5,30.19,NNE,27,0.0,3.0,56,0.00,,,0.00,0,LWC V2.00 B727,2013-02-25 04:50:00,
2013-02-24 21:55:00,21.7,8.5,30.19,NE,52,5.0,8.0,56,0.00,,,0.00,0,LWC V2.00 B727,2013-02-25 04:55:00,
2013-02-24 22:00:00,21.7,8.5,30.19,NNE,25,1.0,4.0,56,0.00,,,0.00,0,LWC V2.00 B727,2013-02-25 05:00:00,
2013-02-24 22:05:00,21.7,8.5,30.19,NNE,26,3.0,7.0,56,0.00,,,0.00,0,LWC V2.00 B727,2013-02-25 05:05:00,
2013-02-24 22:10:00,21.7,8.8,30.19,North,9,8.0,9.0,57,0.00,,,0.00,0,LWC V2.00 B727,2013-02-25 05:10:00,
2013-02-24 22:15:00,21.7,8.5,30.20,NNE,24,3.0,8.0,56,0.00,,,0.00,0,LWC V2.00 B727,2013-02-25 05:15:00,
2013-02-24 22:20:00,21.7,8.5,30.20,NNE,15,5.0,8.0,56,0.00,,,0.00,0,LWC V2.00 B727,2013-02-25 05:20:00,
2013-02-24 22:25:00,21.7,8.5,30.20,NNE,28,1.0,6.0,56,0.00,,,0.00,0,LWC V2.00 B727,2013-02-25 05:25:00,
2013-02-24 22:30:00,21.7,8.1,30.20,NE,34,4.0,9.0,55,0.00,,,0.00,0,LWC V2.00 B727,2013-02-25 05:30:00,
2013-02-24 22:35:00,21.7,8.5,30.20,NNE,22,0.0,5.0,56,0.00,,,0.00,0,LWC V2.00 B727,2013-02-25 05:35:00,
2013-02-24 22:40:00,21.7,8.5,30.21,NNE,22,0.0,4.0,56,0.00,,,0.00,0,LWC V2.00 B727,2013-02-25 05:40:00,
2013-02-24 22:45:00,21.6,8.8,30.21,NNE,22,0.0,2.0,57,0.00,,,0.00,0,LWC V2.00 B727,2013-02-25 05:45:00,
2013-02-24 22:50:00,21.6,8.8,30.21,NNE,22,1.0,3.0,57,0.00,,,0.00,0,LWC V2.00 B727,2013-02-25 05:50:00,
2013-02-24 22:55:00,21.5,8.7,30.22,NNE,22,0.0,0.0,57,0.00,,,0.00,0,LWC V2.00 B727,2013-02-25 05:55:00,
2013-02-24 23:00:00,21.5,8.3,30.22,NE,49,0.0,3.0,56,0.00,,,0.00,0,LWC V2.00 B727,2013-02-25 06:00:00,
2013-02-24 23:05:00,21.5,8.3,30.22,ENE,57,0.0,3.0,56,0.00,,,0.00,0,LWC V2.00 B727,2013-02-25 06:05:00,
2013-02-24 23:10:00,21.5,8.3,30.22,ENE,57,0.0,2.0,56,0.00,,,0.00,0,LWC V2.00 B727,2013-02-25 06:10:00,
2013-02-24 23:15:00,21.4,8.2,30.22,NE,56,2.0,4.0,56,0.00,,,0.00,0,LWC V2.00 B727,2013-02-25 06:15:00,
2013-02-24 23:20:00,21.4,8.6,30.23,NE,56,0.0,1.0,57,0.00,,,0.00,0,LWC V2.00 B727,2013-02-25 06:20:00,
2013-02-24 23:25:00,21.4,8.2,30.23,NE,56,0.0,0.0,56,0.00,,,0.00,0,LWC V2.00 B727,2013-02-25 06:25:00,
2013-02-24 23:30:00,21.4,8.2,30.24,NE,56,0.0,1.0,56,0.00,,,0.00,0,LWC V2.00 B727,2013-02-25 06:30:00,
2013-02-24 23:35:00,21.3,8.9,30.23,NE,56,0.0,0.0,58,0.00,,,0.00,0,LWC V2.00 B727,2013-02-25 06:35:00,
2013-02-24 23:40:00,21.3,9.6,30.23,ENE,57,0.0,0.0,60,0.00,,,0.00,0,LWC V2.00 B727,2013-02-25 06:40:00,
2013-02-24 23:45:00,21.2,9.9,30.24,ENE,57,0.0,1.0,61,0.00,,,0.00,0,LWC V2.00 B727,2013-02-25 06:45:00,
2013-02-24 23:50:00,21.1,10.5,30.24,NE,56,0.0,0.0,63,0.00,,,0.00,0,LWC V2.00 B727,2013-02-25 06:50:00,
2013-02-24 23:55:00,21.0,10.1,30.24,ENE,57,0.0,0.0,62,0.00,,,0.00,0,LWC V2.00 B727,2013-02-25 06:55:00,